I1SXT-13 Weather Reports


time (UTC)temp
C
wind
direction
speed
KPH
gust
KPH
rain 1hr
cm
rain 24hr
cm
rain mn
cm
humidity
%
barometer
mb
20260506234429 13 0.0 0.0 0.00 0.00 0.00 87 1012.8
20260506233925 13 0.0 0.0 0.00 0.00 0.00 88 1013.5
20260506233428 13 0.0 0.0 0.00 0.00 0.00 88 1013.3
20260506232924 13 0.0 0.0 0.00 0.00 0.00 88 1013.3
20260506232427 13 0.0 0.0 0.00 0.00 0.00 88 1014.0
20260506231930 13 0.0 0.0 0.00 0.00 0.00 87 1013.4
20260506231425 13 0.0 0.0 0.00 0.00 0.00 88 1013.0
20260506230928 13 0.0 0.0 0.00 0.00 0.00 88 1013.7
20260506230425 13 0.0 0.0 0.00 0.00 0.00 87 1013.8
20260506225927 13 0.0 0.0 0.00 0.00 0.00 88 1013.3
20260506225423 13 0.0 0.0 0.00 0.00 0.00 87 1013.2
20260506224926 13 0.0 0.0 0.00 0.00 0.00 88 1013.1
20260506224429 13 0.0 0.0 0.00 0.00 0.00 89 1012.5
20260506223925 13 0.0 0.0 0.00 0.00 0.00 88 1012.2
20260506223428 13 0.0 0.0 0.00 0.00 0.00 88 1013.3
20260506222924 13 0.0 0.0 0.00 0.00 0.00 88 1013.7
20260506222427 13 0.0 0.0 0.00 0.00 0.00 88 1012.7
20260506221929 13 0.0 0.0 0.00 0.00 0.00 88 1013.2
20260506221425 13 0.0 0.0 0.00 0.00 0.00 88 1013.8
20260506220928 13 0.0 0.0 0.00 0.00 0.00 87 1013.2
20260506220424 13 0.0 0.0 0.00 0.00 0.00 86 1013.5
20260506215924 14 0.0 0.0 0.00 0.00 3.43 87 1013.7
20260506215427 13 0.0 0.0 0.00 0.00 3.43 87 1013.3
20260506214930 13 0.0 0.0 0.00 0.00 3.43 87 1013.8
20260506214426 13 0.0 0.0 0.00 0.00 3.43 88 1013.3
20260506213929 13 0.0 0.0 0.00 0.00 3.43 88 1013.8
20260506213425 13 0.0 0.0 0.00 0.00 3.43 88 1013.3
20260506212927 13 0.0 0.0 0.00 0.00 3.43 89 1013.3
20260506212423 14 0.0 0.0 0.00 0.00 3.43 89 1012.7
20260506211926 14 0.0 0.0 0.00 0.00 3.43 89 1012.6
20260506211429 14 0.0 0.0 0.00 0.00 3.43 88 1013.5
20260506210925 15 0.0 0.0 0.00 0.00 3.43 87 1012.4
20260506210428 15 0.0 0.0 0.00 0.00 3.43 86 1013.6
20260506205924 15 0.0 0.0 0.00 0.00 3.43 86 1013.2
20260506205427 15 0.0 0.0 0.00 0.00 3.43 85 1013.4
20260506204930 15 0.0 0.0 0.00 0.00 3.43 86 1012.9
20260506204426 14 0.0 0.0 0.00 0.00 3.43 87 1013.0
20260506203928 14 0.0 0.0 0.00 0.00 3.43 88 1012.3
20260506202423 14 0.0 0.0 0.00 0.00 3.43 89 1012.5
20260506201926 14 0.0 0.0 0.00 0.00 3.43 89 1012.7
20260506201429 15 0.0 0.0 0.00 0.00 3.43 88 1012.2
20260506200925 14 0.0 0.0 0.00 0.00 3.43 88 1012.0
20260506200428 15 0.0 0.0 0.00 0.00 3.43 89 1011.7
20260506195923 15 0.0 0.0 0.00 0.00 3.43 88 1012.6
20260506195426 15 0.0 0.0 0.00 0.00 3.43 89 1012.5
20260506194929 14 0.0 0.0 0.00 0.00 3.43 89 1012.7
20260506194425 14 0.0 0.0 0.00 0.00 3.43 88 1011.8
20260506193928 15 0.0 0.0 0.00 0.00 3.43 88 1011.9
20260506193424 15 0.0 0.0 0.00 0.00 3.43 88 1011.9
20260506192927 15 0.0 0.0 0.00 0.00 3.43 89 1012.0
20260506192430 15 0.0 0.0 0.00 0.00 3.43 88 1011.9
20260506191926 15 0.0 0.0 0.00 0.00 3.43 88 1011.6
20260506191428 15 0.0 0.0 0.00 0.00 3.43 87 1011.4
20260506190925 15 0.0 0.0 0.00 0.00 3.43 86 1011.3
20260506190427 15 0.0 0.0 0.00 0.00 3.43 85 1011.5
20260506185923 15 0.0 0.0 0.00 0.00 3.43 85 1011.3
20260506185426 16 0.0 0.0 0.00 0.00 3.43 82 1011.5
20260506184929 16 0.0 0.0 0.00 0.00 3.43 81 1011.0
20260506184425 15 0.0 0.0 0.00 0.00 3.43 83 1011.4
20260506183928 16 0.0 0.0 0.00 0.00 3.43 82 1011.8
20260506183424 16 0.0 0.0 0.00 0.00 3.43 82 1011.1
20260506182927 15 0.0 0.0 0.00 0.00 3.43 85 1011.2
20260506182429 15 0.0 0.0 0.00 0.00 3.43 84 1011.2
20260506181925 16 0.0 0.0 0.00 0.00 3.43 83 1011.6
20260506180924 16 0.0 0.0 0.00 0.00 3.43 82 1010.8
20260506180427 16 0.0 0.0 0.00 0.00 3.43 80 1011.1
20260506175426 16 0.0 0.0 0.00 0.00 3.43 79 1010.8
20260506174929 16 0.0 0.0 0.00 0.00 3.43 79 1011.5
20260506174425 16 0.0 0.0 0.00 0.00 3.43 78 1011.1
20260506173928 16 0.0 0.0 0.00 0.00 3.43 77 1011.0
20260506173424 16 0.0 0.0 0.00 0.00 3.43 77 1010.2
20260506172926 16 0.0 0.0 0.00 0.00 3.43 77 1011.0
20260506172429 16 0.0 0.0 0.00 0.00 3.43 76 1010.6
20260506171925 16 0.0 0.0 0.00 0.00 3.43 75 1011.6
20260506171428 17 0.0 0.0 0.00 0.00 3.43 76 1010.7
20260506165930 17 0.0 0.0 0.00 0.00 3.43 77 1011.0
20260506165426 17 0.0 0.0 0.00 0.00 3.43 77 1010.7
20260506164929 16 0.0 0.0 0.00 0.00 3.43 76 1011.0
20260506164424 16 0.0 0.0 0.00 0.00 3.43 76 1010.9
20260506163927 17 0.0 0.0 0.00 0.00 3.43 78 1010.9
20260506163423 17 0.0 0.0 0.00 0.00 3.43 78 1011.1
20260506162926 17 0.0 0.0 0.00 0.00 3.43 78 1011.1
20260506162429 17 0.0 0.0 0.00 0.00 3.43 77 1010.7
20260506161925 17 0.0 0.0 0.00 0.00 3.43 76 1010.5
20260506161428 17 0.0 0.0 0.00 0.00 3.43 76 1010.9
20260506160924 18 0.0 0.0 0.00 0.00 3.43 76 1011.3
20260506160427 17 0.0 0.0 0.00 0.00 3.43 79 1011.2
20260506155929 17 0.0 0.0 0.00 0.00 3.43 79 1010.9
20260506155425 17 0.0 0.0 0.00 0.00 3.43 79 1010.5
20260506154928 17 0.0 0.0 0.00 0.00 3.43 78 1010.6
20260506154424 17 0.0 0.0 0.00 0.00 3.43 77 1010.7
20260506153927 17 0.0 0.0 0.00 0.00 3.43 76 1010.8
20260506153430 17 0.0 0.0 0.00 0.00 3.43 79 1010.1
20260506152926 18 0.0 0.0 0.00 0.00 3.43 78 1010.0
20260506152429 17 0.0 0.0 0.00 0.00 3.43 79 1010.1
20260506151925 18 0.0 0.0 0.00 0.00 3.43 77 1010.8
20260506151427 18 0.0 0.0 0.00 0.00 3.43 77 1011.3
20260506150923 18 0.0 0.0 0.00 0.00 3.43 79 1010.9
20260506150426 18 0.0 0.0 0.00 0.00 3.43 74 1010.3
20260506145929 19 0.0 0.0 0.00 0.00 3.43 74 1011.1
20260506145425 19 0.0 0.0 0.00 0.00 3.43 75 1010.5
20260506144928 19 0.0 0.0 0.00 0.00 3.43 74 1010.8
20260506144424 19 0.0 0.0 0.00 0.00 3.35 74 1010.5
20260506143926 20 0.0 0.0 0.00 0.00 3.30 71 1010.5
20260506143429 20 0.0 0.0 0.00 0.00 3.30 72 1010.0
20260506142428 20 0.0 0.0 0.00 0.00 3.30 72 1009.9
20260506141924 20 0.0 0.0 0.00 0.00 3.30 70 1010.0
20260506141427 20 0.0 0.0 0.00 0.00 3.30 71 1009.4
20260506140929 20 0.0 0.0 0.00 0.00 3.30 72 1009.8
20260506140425 20 0.0 0.0 0.00 0.00 3.30 72 1009.8
20260506135928 20 0.0 0.0 0.00 0.00 3.30 74 1010.3
20260506135425 20 0.0 0.0 0.00 0.00 3.30 73 1010.4
20260506134927 20 0.0 0.0 0.00 0.00 3.30 71 1010.3
20260506134430 21 0.0 0.0 0.00 0.00 3.30 73 1010.5
20260506133926 20 0.0 0.0 0.00 0.00 3.30 75 1010.4
20260506133429 20 0.0 0.0 0.00 0.00 3.30 75 1010.4
20260506132925 20 0.0 0.0 0.00 0.00 3.30 76 1010.2
20260506132427 19 0.0 0.0 0.00 0.00 3.30 78 1009.9
20260506131923 19 0.0 0.0 0.00 0.00 3.30 78 1010.0
20260506131426 19 0.0 0.0 0.00 0.00 3.30 80 1009.7
20260506130929 18 0.0 0.0 0.00 0.00 3.30 81 1010.0
20260506130425 18 0.0 0.0 0.00 0.00 3.30 81 1010.1
20260506125928 18 0.0 0.0 0.00 0.00 3.30 82 1010.2
20260506125424 19 0.0 0.0 0.00 0.00 3.30 78 1009.8
20260506124926 18 0.0 0.0 0.00 0.00 3.30 81 1009.7
20260506124429 18 0.0 0.0 0.00 0.00 3.30 81 1009.9
20260506123925 18 0.0 0.0 0.00 0.00 3.30 80 1010.0
20260506123428 18 0.0 0.0 0.00 0.00 3.30 80 1009.8
20260506122924 18 0.0 0.0 0.00 0.00 3.30 79 1009.9
20260506122427 18 0.0 0.0 0.00 0.00 3.30 80 1009.9
20260506121426 18 0.0 0.0 0.00 0.00 3.30 80 1010.0
20260506120928 18 0.0 0.0 0.00 0.00 3.30 79 1009.7
20260506120424 18 0.0 0.0 0.00 0.00 3.30 79 1010.0
20260506115927 18 0.0 0.0 0.00 0.00 3.30 77 1009.9
20260506115423 18 0.0 0.0 0.00 0.00 3.30 78 1009.9
20260506114926 18 0.0 0.0 0.00 0.00 3.30 76 1010.4
20260506114429 19 0.0 0.0 0.00 0.00 3.30 79 1009.4
20260506113925 19 0.0 0.0 0.00 0.00 3.30 79 1009.8
20260506112923 18 0.0 0.0 0.00 0.00 3.30 82 1009.7
20260506112426 18 0.0 0.0 0.00 0.00 3.30 79 1010.0
20260506111929 18 0.0 0.0 0.00 0.00 3.30 78 1010.1
20260506111425 18 0.0 0.0 0.00 0.00 3.30 79 1010.0
20260506110928 18 0.0 0.0 0.00 0.00 3.30 80 1010.6
20260506110424 17 0.0 0.0 0.00 0.00 3.30 83 1009.8
20260506105926 17 0.0 0.0 0.00 0.00 3.30 85 1010.4
20260506105429 17 0.0 0.0 0.00 0.00 3.30 85 1010.5
20260506104925 17 0.0 0.0 0.00 0.00 3.30 85 1009.8
20260506104428 17 0.0 0.0 0.00 0.00 3.30 85 1009.7
20260506103427 17 0.0 0.0 0.00 0.00 3.30 84 1009.7
20260506102930 17 0.0 0.0 0.00 0.00 3.30 85 1010.2
20260506102426 17 0.0 0.0 0.00 0.00 3.30 86 1009.7
20260506101929 17 0.0 0.0 0.00 0.00 3.30 86 1010.3
20260506101424 17 0.0 0.0 0.00 0.00 3.30 85 1010.1
20260506100927 18 0.0 0.0 0.00 0.00 3.30 85 1009.9
20260506100430 18 0.0 0.0 0.00 0.00 3.30 86 1009.7
20260506095926 17 0.0 0.0 0.00 0.00 3.30 88 1009.6
20260506095429 17 0.0 0.0 0.00 0.00 3.30 89 1010.0
20260506094925 17 0.0 0.0 0.00 0.00 3.30 92 1009.9
20260506093923 17 0.0 0.0 0.00 0.00 3.30 91 1009.4
20260506093426 17 0.0 0.0 0.00 0.00 3.30 91 1009.3
20260506092929 17 0.0 0.0 0.00 0.00 3.30 91 1009.8
20260506091928 17 0.0 0.0 0.00 0.00 3.28 92 1009.9
20260506091423 17 0.0 0.0 0.00 0.00 3.20 92 1009.7
20260506090925 17 0.0 0.0 0.00 0.00 3.05 92 1008.9
20260506090428 17 0.0 0.0 0.00 0.00 2.84 93 1009.9
20260506085930 17 0.0 0.0 0.00 0.00 2.62 93 1009.3
20260506084927 17 0.0 0.0 0.00 0.00 2.11 93 1009.5
20260506084429 17 0.0 0.0 0.00 0.00 1.85 94 1009.9
20260506083924 16 0.0 0.0 0.00 0.00 1.57 94 1009.3
20260506083426 16 0.0 0.0 0.00 0.00 1.30 93 1009.2
20260506081924 17 0.0 0.0 0.00 0.00 0.20 92 1009.0
20260506081427 17 0.0 0.0 0.00 0.00 0.20 93 1009.4
20260506080929 16 0.0 0.0 0.00 0.00 0.00 92 1008.1
20260506080425 17 0.0 0.0 0.00 0.00 0.00 92 1008.1
20260506073427 16 0.0 0.0 0.00 0.00 0.10 93 1008.2
20260506072923 17 0.0 0.0 0.00 0.00 0.10 94 1008.5
20260506072426 16 0.0 0.0 0.00 0.00 0.10 94 1008.1
20260506071929 16 0.0 0.0 0.00 0.00 0.10 95 1008.9
20260506071425 16 0.0 0.0 0.00 0.00 0.10 95 1008.5
20260506070928 16 0.0 0.0 0.00 0.00 0.10 94 1007.8
20260506070424 16 0.0 0.0 0.00 0.00 0.10 94 1008.1
20260506062426 16 0.0 0.0 0.00 0.00 0.10 95 1007.9
20260506061928 15 0.0 0.0 0.00 0.00 0.10 96 1008.3
20260506061424 15 0.0 0.0 0.00 0.00 0.10 96 1007.6
20260506060927 15 0.0 0.0 0.00 0.00 0.10 96 1008.0
20260506050927 13 0.0 0.0 0.00 0.00 0.10 96 1008.1
20260506050430 14 0.0 0.0 0.00 0.00 0.10 97 1007.6
20260506044924 13 0.0 0.0 0.00 0.00 0.08 96 1008.5
20260506044427 13 0.0 0.0 0.00 0.00 0.08 96 1008.5
20260506043923 13 0.0 0.0 0.00 0.00 0.08 96 1007.9
20260506043426 13 0.0 0.0 0.00 0.00 0.08 95 1008.3
20260506042929 13 0.0 0.0 0.00 0.00 0.08 96 1007.9
20260506042425 13 0.0 0.0 0.00 0.00 0.08 96 1008.4
20260506041928 13 0.0 0.0 0.00 0.00 0.08 95 1008.6
20260506041424 13 0.0 0.0 0.00 0.00 0.08 95 1008.4
20260506040927 13 0.0 0.0 0.00 0.00 0.08 95 1009.1
20260506040429 13 0.0 0.0 0.00 0.00 0.08 95 1008.3
20260506035925 13 0.0 0.0 0.00 0.00 0.08 96 1008.0
20260506035428 13 0.0 0.0 0.00 0.00 0.08 96 1008.3
20260506034924 13 0.0 0.0 0.00 0.00 0.08 96 1008.6
20260506033426 13 0.0 0.0 0.00 0.00 0.08 96 1009.4
20260506032929 13 0.0 0.0 0.00 0.00 0.08 96 1008.2
20260506032425 13 0.0 0.0 0.00 0.00 0.08 96 1008.7
20260506031927 13 0.0 0.0 0.00 0.00 0.08 96 1009.8
20260506030926 13 0.0 0.0 0.00 0.00 0.08 96 1009.0
20260506030429 14 0.0 0.0 0.00 0.00 0.08 96 1009.1
20260506025925 13 0.0 0.0 0.00 0.00 0.08 95 1008.7
20260506025428 13 0.0 0.0 0.00 0.00 0.08 95 1009.2
20260506024924 13 0.0 0.0 0.00 0.00 0.08 94 1010.0
20260506024427 14 0.0 0.0 0.00 0.00 0.08 94 1009.0
20260506023425 14 0.0 0.0 0.00 0.00 0.08 92 1008.3
20260506022928 14 0.0 0.0 0.00 0.00 0.08 93 1008.5
20260506022424 14 0.0 0.0 0.00 0.00 0.08 93 1008.3
20260506021927 13 0.0 0.0 0.00 0.00 0.08 94 1008.7
20260506021423 13 0.0 0.0 0.00 0.00 0.05 94 1008.8
20260506020926 13 0.0 0.0 0.00 0.00 0.05 94 1009.4
20260506020429 13 0.0 0.0 0.00 0.00 0.05 94 1009.0
20260506015925 13 0.0 0.0 0.00 0.00 0.05 94 1009.5
20260506015428 13 0.0 0.0 0.00 0.00 0.05 94 1008.9
20260506014924 13 0.0 0.0 0.00 0.00 0.05 94 1009.2
20260506014426 13 0.0 0.0 0.00 0.00 0.05 94 1009.8
20260506013929 13 0.0 0.0 0.00 0.00 0.05 94 1009.2
20260506013425 13 0.0 0.0 0.00 0.00 0.05 93 1009.6
20260506012928 13 0.0 0.0 0.00 0.00 0.05 94 1010.1
20260506012424 13 0.0 0.0 0.00 0.00 0.05 94 1010.4
20260506011927 13 0.0 0.0 0.00 0.00 0.05 94 1010.0
20260506011430 13 0.0 0.0 0.00 0.00 0.05 94 1010.2
20260506010926 13 0.0 0.0 0.00 0.00 0.05 94 1010.6
20260506005925 14 0.0 0.0 0.00 0.00 0.05 94 1010.5
20260506005428 14 0.0 0.0 0.00 0.00 0.03 94 1010.1
20260506004924 14 0.0 0.0 0.00 0.00 0.03 93 1010.4
20260506004426 14 0.0 0.0 0.00 0.00 0.03 93 1011.1
20260506003929 14 0.0 0.0 0.00 0.00 0.03 93 1011.4
20260506003425 14 0.0 0.0 0.00 0.00 0.03 93 1011.6
20260506002928 14 0.0 0.0 0.00 0.00 0.03 93 1011.2
20260506002424 14 0.0 0.0 0.00 0.00 0.03 94 1010.5
20260506001927 14 0.0 0.0 0.00 0.00 0.03 93 1010.9
20260506001430 14 0.0 0.0 0.00 0.00 0.03 93 1011.1
20260506000926 14 0.0 0.0 0.00 0.00 0.00 92 1011.5
20260506000431 13 0.0 0.0 0.00 0.00 0.00 92 1011.2
20260505235924 14 0.0 0.0 0.00 0.00 0.00 91 1011.6
20260505235427 14 0.0 0.0 0.00 0.00 0.00 90 1010.6
20260505234923 15 0.0 0.0 0.00 0.00 0.00 85 1011.6